Time,TemperatureF,DewpointF,PressureIn,WindDirection,WindDirectionDegrees,WindSpeedMPH,WindSpeedGustMPH,Humidity,HourlyPrecipIn,Conditions,Clouds,dailyrainin,SoftwareType,DateUTC
2013-02-27 00:02:00,30.0,25.0,29.83,NW,317,1.0,8.0,83,0.00,,,0.01,,2013-02-27 06:02:00,
2013-02-27 00:11:00,30.0,25.0,29.83,NW,317,1.0,8.0,83,0.00,,,0.01,,2013-02-27 06:11:00,
2013-02-27 00:21:00,29.0,25.0,29.83,West,259,2.0,8.0,83,0.00,,,0.01,,2013-02-27 06:21:00,
2013-02-27 00:32:00,29.0,25.0,29.83,WNW,292,1.0,8.0,84,0.00,,,0.01,,2013-02-27 06:32:00,
2013-02-27 00:42:00,29.0,25.0,29.83,WNW,292,1.0,8.0,84,0.00,,,0.01,,2013-02-27 06:42:00,
2013-02-27 00:52:00,28.0,24.0,29.83,WSW,238,2.0,10.0,83,0.00,,,0.01,,2013-02-27 06:52:00,
2013-02-27 01:01:00,28.0,24.0,29.83,NW,316,3.0,10.0,83,0.00,,,0.01,,2013-02-27 07:01:00,
2013-02-27 01:12:00,28.0,24.0,29.83,NW,316,3.0,10.0,83,0.00,,,0.01,,2013-02-27 07:12:00,
2013-02-27 01:21:00,28.0,24.0,29.83,West,265,2.0,10.0,83,0.00,,,0.01,,2013-02-27 07:21:00,
2013-02-27 01:32:00,28.0,24.0,29.83,NW,316,2.0,6.0,83,0.00,,,0.01,,2013-02-27 07:32:00,
2013-02-27 01:42:00,28.0,24.0,29.83,NW,316,2.0,6.0,83,0.00,,,0.01,,2013-02-27 07:42:00,
2013-02-27 01:51:00,28.0,24.0,29.83,NW,316,1.0,13.0,83,0.00,,,0.01,,2013-02-27 07:51:00,
2013-02-27 02:01:00,28.0,24.0,29.83,NW,322,3.0,11.0,84,0.00,,,0.01,,2013-02-27 08:01:00,
2013-02-27 02:11:00,28.0,24.0,29.83,NW,322,3.0,11.0,84,0.00,,,0.01,,2013-02-27 08:11:00,
2013-02-27 02:21:00,27.0,23.0,29.83,NW,313,2.0,8.0,84,0.00,,,0.01,,2013-02-27 08:21:00,
2013-02-27 02:32:00,27.0,23.0,29.83,NW,315,2.0,11.0,85,0.00,,,0.01,,2013-02-27 08:32:00,
2013-02-27 02:41:00,27.0,23.0,29.83,NW,315,2.0,11.0,85,0.00,,,0.01,,2013-02-27 08:41:00,
2013-02-27 02:53:00,27.0,23.0,29.83,NW,325,3.0,12.0,85,0.00,,,0.01,,2013-02-27 08:53:00,
2013-02-27 03:01:00,27.0,23.0,29.82,NNW,337,3.0,11.0,85,0.00,,,0.01,,2013-02-27 09:01:00,
2013-02-27 03:12:00,27.0,23.0,29.82,NNW,337,3.0,11.0,85,0.00,,,0.01,,2013-02-27 09:12:00,
2013-02-27 03:22:00,26.0,22.0,29.82,NW,319,2.0,9.0,85,0.00,,,0.01,,2013-02-27 09:22:00,
2013-02-27 03:32:00,26.0,22.0,29.82,North,350,3.0,12.0,85,0.00,,,0.01,,2013-02-27 09:32:00,
2013-02-27 03:41:00,26.0,22.0,29.82,North,350,3.0,12.0,85,0.00,,,0.01,,2013-02-27 09:41:00,
2013-02-27 03:52:00,26.0,22.0,29.81,WSW,255,3.0,14.0,85,0.00,,,0.01,,2013-02-27 09:52:00,
2013-02-27 04:01:00,26.0,22.0,29.81,NW,313,2.0,14.0,85,0.00,,,0.01,,2013-02-27 10:01:00,
2013-02-27 04:12:00,26.0,22.0,29.81,NW,313,2.0,14.0,85,0.00,,,0.01,,2013-02-27 10:12:00,
2013-02-27 04:22:00,26.0,22.0,29.82,NW,311,3.0,14.0,85,0.00,,,0.01,,2013-02-27 10:22:00,
2013-02-27 04:32:00,26.0,22.0,29.82,WNW,303,2.0,11.0,85,0.00,,,0.01,,2013-02-27 10:32:00,
2013-02-27 04:42:00,26.0,22.0,29.82,WNW,303,2.0,11.0,85,0.00,,,0.01,,2013-02-27 10:42:00,
2013-02-27 04:52:00,26.0,22.0,29.82,NW,313,3.0,11.0,86,0.00,,,0.01,,2013-02-27 10:52:00,
2013-02-27 05:02:00,26.0,22.0,29.82,NW,313,3.0,11.0,86,0.00,,,0.01,,2013-02-27 11:02:00,
2013-02-27 05:12:00,26.0,22.0,29.82,NW,313,3.0,11.0,86,0.00,,,0.01,,2013-02-27 11:12:00,
2013-02-27 05:22:00,26.0,22.0,29.83,NW,315,2.0,9.0,86,0.00,,,0.01,,2013-02-27 11:22:00,
2013-02-27 05:32:00,26.0,22.0,29.83,NW,309,2.0,9.0,86,0.00,,,0.01,,2013-02-27 11:32:00,
2013-02-27 05:42:00,26.0,22.0,29.83,NW,309,2.0,9.0,86,0.00,,,0.01,,2013-02-27 11:42:00,
2013-02-27 05:52:00,26.0,22.0,29.83,NW,325,4.0,12.0,85,0.00,,,0.01,,2013-02-27 11:52:00,
2013-02-27 06:02:00,26.0,22.0,29.84,NNW,333,2.0,14.0,85,0.00,,,0.01,,2013-02-27 12:02:00,
2013-02-27 06:13:00,26.0,22.0,29.84,NNW,333,2.0,14.0,85,0.00,,,0.01,,2013-02-27 12:13:00,
2013-02-27 06:22:00,26.0,22.0,29.84,WSW,237,2.0,14.0,85,0.00,,,0.01,,2013-02-27 12:22:00,
2013-02-27 06:33:00,26.0,22.0,29.85,West,270,3.0,12.0,85,0.00,,,0.01,,2013-02-27 12:33:00,
2013-02-27 06:42:00,26.0,22.0,29.85,West,270,3.0,12.0,85,0.00,,,0.01,,2013-02-27 12:42:00,
2013-02-27 06:52:00,26.0,22.0,29.85,WNW,282,3.0,12.0,84,0.00,,,0.01,,2013-02-27 12:52:00,
2013-02-27 07:02:00,25.0,21.0,29.85,West,263,3.0,11.0,84,0.00,,,0.01,,2013-02-27 13:02:00,
2013-02-27 07:11:00,25.0,21.0,29.85,West,263,3.0,11.0,84,0.00,,,0.01,,2013-02-27 13:11:00,
2013-02-27 07:22:00,25.0,21.0,29.85,WNW,289,2.0,11.0,84,0.00,,,0.01,,2013-02-27 13:22:00,
2013-02-27 07:32:00,25.0,21.0,29.86,WNW,302,2.0,9.0,84,0.00,,,0.01,,2013-02-27 13:32:00,
2013-02-27 07:42:00,25.0,21.0,29.86,WNW,302,2.0,9.0,84,0.00,,,0.01,,2013-02-27 13:42:00,
2013-02-27 07:52:00,25.0,21.0,29.86,NNW,347,2.0,12.0,83,0.00,,,0.01,,2013-02-27 13:52:00,
2013-02-27 08:02:00,25.0,21.0,29.87,NW,325,2.0,7.0,83,0.00,,,0.01,,2013-02-27 14:02:00,
2013-02-27 08:12:00,25.0,21.0,29.87,NW,325,2.0,7.0,83,0.00,,,0.01,,2013-02-27 14:12:00,
2013-02-27 08:22:00,25.0,20.0,29.87,NW,304,2.0,10.0,82,0.00,,,0.01,,2013-02-27 14:22:00,
2013-02-27 08:32:00,25.0,20.0,29.87,WNW,296,1.0,11.0,82,0.00,,,0.01,,2013-02-27 14:32:00,
2013-02-27 08:42:00,25.0,20.0,29.87,WNW,296,1.0,11.0,82,0.00,,,0.01,,2013-02-27 14:42:00,
2013-02-27 08:52:00,25.0,20.0,29.87,WNW,296,1.0,11.0,82,0.00,,,0.01,,2013-02-27 14:52:00,
2013-02-27 09:02:00,25.0,20.0,29.88,NW,313,2.0,11.0,80,0.00,,,0.01,,2013-02-27 15:02:00,
2013-02-27 09:12:00,25.0,20.0,29.88,NW,313,2.0,11.0,80,0.00,,,0.01,,2013-02-27 15:12:00,
2013-02-27 09:22:00,25.0,19.0,29.88,WNW,291,2.0,11.0,79,0.00,,,0.01,,2013-02-27 15:22:00,
2013-02-27 09:32:00,25.0,19.0,29.88,WNW,296,2.0,11.0,78,0.00,,,0.01,,2013-02-27 15:32:00,
2013-02-27 09:42:00,25.0,19.0,29.88,WNW,296,2.0,11.0,78,0.00,,,0.01,,2013-02-27 15:42:00,
2013-02-27 09:52:00,25.0,19.0,29.88,WNW,293,3.0,11.0,76,0.00,,,0.01,,2013-02-27 15:52:00,
2013-02-27 10:02:00,26.0,19.0,29.89,West,275,4.0,9.0,74,0.00,,,0.01,,2013-02-27 16:02:00,
2013-02-27 10:12:00,26.0,19.0,29.89,West,275,4.0,9.0,74,0.00,,,0.01,,2013-02-27 16:12:00,
2013-02-27 10:22:00,26.0,19.0,29.89,West,275,4.0,9.0,74,0.00,,,0.01,,2013-02-27 16:22:00,
2013-02-27 10:32:00,27.0,19.0,29.89,North,355,4.0,12.0,72,0.00,,,0.01,,2013-02-27 16:32:00,
2013-02-27 10:42:00,27.0,19.0,29.89,North,355,4.0,12.0,72,0.00,,,0.01,,2013-02-27 16:42:00,
2013-02-27 10:52:00,28.0,20.0,29.90,WNW,292,4.0,14.0,71,0.00,,,0.01,,2013-02-27 16:52:00,
2013-02-27 11:02:00,28.0,20.0,29.90,WNW,292,4.0,14.0,71,0.00,,,0.01,,2013-02-27 17:02:00,
2013-02-27 11:11:00,28.0,20.0,29.90,WNW,292,4.0,14.0,71,0.00,,,0.01,,2013-02-27 17:11:00,
2013-02-27 11:21:00,29.0,19.0,29.90,WSW,257,4.0,12.0,66,0.00,,,0.01,,2013-02-27 17:21:00,
2013-02-27 11:32:00,30.0,20.0,29.90,NW,325,3.0,10.0,65,0.00,,,0.01,,2013-02-27 17:32:00,
2013-02-27 11:42:00,30.0,20.0,29.90,NW,325,3.0,10.0,65,0.00,,,0.01,,2013-02-27 17:42:00,
2013-02-27 11:52:00,30.0,19.0,29.91,North,355,3.0,11.0,64,0.00,,,0.01,,2013-02-27 17:52:00,
2013-02-27 12:01:00,31.0,20.0,29.91,SW,232,4.0,12.0,63,0.00,,,0.01,,2013-02-27 18:01:00,
2013-02-27 12:11:00,31.0,20.0,29.91,SW,232,4.0,12.0,63,0.00,,,0.01,,2013-02-27 18:11:00,
2013-02-27 12:22:00,32.0,20.0,29.91,NW,317,4.0,17.0,60,0.00,,,0.01,,2013-02-27 18:22:00,
2013-02-27 12:32:00,32.0,20.0,29.91,NW,318,4.0,17.0,60,0.00,,,0.01,,2013-02-27 18:32:00,
2013-02-27 12:42:00,32.0,20.0,29.91,NW,318,4.0,17.0,60,0.00,,,0.01,,2013-02-27 18:42:00,
2013-02-27 12:52:00,33.0,21.0,29.90,NNW,327,4.0,14.0,60,0.00,,,0.01,,2013-02-27 18:52:00,
2013-02-27 13:01:00,34.0,21.0,29.90,NNW,333,4.0,14.0,59,0.00,,,0.01,,2013-02-27 19:01:00,
2013-02-27 13:12:00,34.0,21.0,29.90,NNW,333,4.0,14.0,59,0.00,,,0.01,,2013-02-27 19:12:00,
2013-02-27 13:21:00,34.0,21.0,29.90,WSW,248,3.0,11.0,59,0.00,,,0.01,,2013-02-27 19:21:00,
2013-02-27 13:32:00,35.0,22.0,29.90,NNW,335,3.0,11.0,58,0.00,,,0.01,,2013-02-27 19:32:00,
2013-02-27 13:42:00,35.0,22.0,29.90,NNW,335,3.0,11.0,58,0.00,,,0.01,,2013-02-27 19:42:00,
2013-02-27 13:52:00,35.0,22.0,29.90,NNW,334,5.0,14.0,58,0.00,,,0.01,,2013-02-27 19:52:00,
2013-02-27 14:01:00,35.0,21.0,29.90,NW,322,5.0,14.0,56,0.00,,,0.01,,2013-02-27 20:01:00,
2013-02-27 14:12:00,35.0,21.0,29.90,NW,322,5.0,14.0,56,0.00,,,0.01,,2013-02-27 20:12:00,
2013-02-27 14:21:00,36.0,22.0,29.90,WNW,300,5.0,13.0,56,0.00,,,0.01,,2013-02-27 20:21:00,
2013-02-27 14:32:00,36.0,21.0,29.89,NW,321,6.0,19.0,55,0.00,,,0.00,,2013-02-27 20:32:00,
2013-02-27 14:42:00,36.0,21.0,29.89,NW,321,6.0,19.0,55,0.00,,,0.00,,2013-02-27 20:42:00,
2013-02-27 14:52:00,37.0,22.0,29.89,North,355,5.0,15.0,54,0.00,,,0.00,,2013-02-27 20:52:00,
2013-02-27 15:02:00,37.0,21.0,29.89,NNW,330,6.0,16.0,53,0.00,,,0.00,,2013-02-27 21:02:00,
2013-02-27 15:11:00,37.0,21.0,29.89,NNW,330,6.0,16.0,53,0.00,,,0.00,,2013-02-27 21:11:00,
2013-02-27 15:22:00,38.0,22.0,29.90,WNW,282,5.0,14.0,53,0.00,,,0.00,,2013-02-27 21:22:00,
2013-02-27 15:32:00,38.0,22.0,29.90,WNW,294,7.0,16.0,53,0.00,,,0.00,,2013-02-27 21:32:00,
2013-02-27 15:42:00,38.0,22.0,29.90,WNW,294,7.0,16.0,53,0.00,,,0.00,,2013-02-27 21:42:00,
2013-02-27 15:52:00,38.0,23.0,29.91,NW,314,5.0,18.0,54,0.00,,,0.00,,2013-02-27 21:52:00,
2013-02-27 16:01:00,38.0,23.0,29.91,NW,314,5.0,18.0,54,0.00,,,0.00,,2013-02-27 22:01:00,
2013-02-27 16:11:00,38.0,23.0,29.91,NW,314,5.0,18.0,54,0.00,,,0.00,,2013-02-27 22:11:00,
2013-02-27 16:21:00,38.0,23.0,29.91,NW,314,5.0,18.0,54,0.00,,,0.00,,2013-02-27 22:21:00,
2013-02-27 16:31:00,37.0,23.0,29.92,NW,304,5.0,16.0,57,0.00,,,0.00,,2013-02-27 22:31:00,
2013-02-27 16:42:00,37.0,23.0,29.92,NW,304,5.0,16.0,57,0.00,,,0.00,,2013-02-27 22:42:00,
2013-02-27 16:52:00,36.0,22.0,29.92,NW,315,6.0,16.0,57,0.00,,,0.00,,2013-02-27 22:52:00,
2013-02-27 17:01:00,36.0,22.0,29.92,West,275,5.0,15.0,57,0.00,,,0.00,,2013-02-27 23:01:00,
2013-02-27 17:11:00,36.0,22.0,29.92,West,275,5.0,15.0,57,0.00,,,0.00,,2013-02-27 23:11:00,
2013-02-27 17:21:00,36.0,22.0,29.92,West,275,5.0,15.0,57,0.00,,,0.00,,2013-02-27 23:21:00,
2013-02-27 17:32:00,36.0,22.0,29.94,WNW,296,6.0,18.0,57,0.00,,,0.00,,2013-02-27 23:32:00,
2013-02-27 17:42:00,36.0,22.0,29.94,WNW,296,6.0,18.0,57,0.00,,,0.00,,2013-02-27 23:42:00,
2013-02-27 17:53:00,36.0,22.0,29.94,NNW,346,5.0,18.0,57,0.00,,,0.00,,2013-02-27 23:53:00,
2013-02-27 18:02:00,35.0,22.0,29.94,WSW,246,6.0,21.0,59,0.00,,,0.00,,2013-02-28 00:02:00,
2013-02-27 18:11:00,35.0,22.0,29.94,WSW,246,6.0,21.0,59,0.00,,,0.00,,2013-02-28 00:11:00,
2013-02-27 18:21:00,35.0,23.0,29.94,NW,306,5.0,16.0,61,0.00,,,0.00,,2013-02-28 00:21:00,
2013-02-27 18:32:00,34.0,23.0,29.96,NW,306,4.0,19.0,64,0.00,,,0.00,,2013-02-28 00:32:00,
2013-02-27 18:42:00,34.0,23.0,29.96,NW,306,4.0,19.0,64,0.00,,,0.00,,2013-02-28 00:42:00,
2013-02-27 18:52:00,34.0,23.0,29.96,WNW,296,4.0,19.0,65,0.00,,,0.00,,2013-02-28 00:52:00,
2013-02-27 19:01:00,34.0,24.0,29.97,SW,215,4.0,19.0,66,0.00,,,0.00,,2013-02-28 01:01:00,
2013-02-27 19:11:00,34.0,24.0,29.97,SW,215,4.0,19.0,66,0.00,,,0.00,,2013-02-28 01:11:00,
2013-02-27 19:21:00,34.0,24.0,29.97,SW,215,4.0,19.0,66,0.00,,,0.00,,2013-02-28 01:21:00,
2013-02-27 19:32:00,33.0,24.0,29.97,NNW,328,5.0,16.0,69,0.00,,,0.00,,2013-02-28 01:32:00,
2013-02-27 19:41:00,33.0,24.0,29.97,NNW,328,5.0,16.0,69,0.00,,,0.00,,2013-02-28 01:41:00,
2013-02-27 19:52:00,33.0,24.0,29.97,NNW,328,5.0,16.0,69,0.00,,,0.00,,2013-02-28 01:52:00,
2013-02-27 20:01:00,33.0,25.0,29.98,NW,321,5.0,14.0,73,0.00,,,0.00,,2013-02-28 02:01:00,
2013-02-27 20:11:00,33.0,25.0,29.98,NW,321,5.0,14.0,73,0.00,,,0.00,,2013-02-28 02:11:00,
2013-02-27 20:22:00,33.0,25.0,29.98,NW,321,5.0,14.0,73,0.00,,,0.00,,2013-02-28 02:22:00,
2013-02-27 20:32:00,33.0,26.0,29.99,South,187,6.0,16.0,76,0.00,,,0.00,,2013-02-28 02:32:00,
2013-02-27 20:41:00,33.0,26.0,29.99,South,187,6.0,16.0,76,0.00,,,0.00,,2013-02-28 02:41:00,
2013-02-27 20:52:00,33.0,26.0,29.99,South,187,6.0,16.0,76,0.00,,,0.00,,2013-02-28 02:52:00,
2013-02-27 21:01:00,32.0,25.0,29.99,WNW,292,6.0,20.0,76,0.00,,,0.00,,2013-02-28 03:01:00,
2013-02-27 21:11:00,32.0,25.0,29.99,WNW,292,6.0,20.0,76,0.00,,,0.00,,2013-02-28 03:11:00,
2013-02-27 21:21:00,32.0,25.0,29.99,WNW,292,6.0,20.0,76,0.00,,,0.00,,2013-02-28 03:21:00,
2013-02-27 21:32:00,32.0,26.0,29.99,NNW,338,3.0,14.0,77,0.00,,,0.00,,2013-02-28 03:32:00,
2013-02-27 21:42:00,32.0,26.0,29.99,NNW,338,3.0,14.0,77,0.00,,,0.00,,2013-02-28 03:42:00,
2013-02-27 21:52:00,32.0,26.0,29.99,SW,226,4.0,14.0,78,0.00,,,0.00,,2013-02-28 03:52:00,
2013-02-27 22:01:00,32.0,26.0,29.99,North,355,5.0,15.0,77,0.00,,,0.00,,2013-02-28 04:01:00,
2013-02-27 22:11:00,32.0,26.0,29.99,North,355,5.0,15.0,77,0.00,,,0.00,,2013-02-28 04:11:00,
2013-02-27 22:21:00,32.0,25.0,30.00,NW,308,6.0,19.0,76,0.00,,,0.00,,2013-02-28 04:21:00,
2013-02-27 22:32:00,32.0,25.0,29.99,WNW,290,6.0,18.0,76,0.00,,,0.00,,2013-02-28 04:32:00,
2013-02-27 22:42:00,32.0,25.0,29.99,WNW,290,6.0,18.0,76,0.00,,,0.00,,2013-02-28 04:42:00,
2013-02-27 22:52:00,32.0,25.0,29.99,WNW,290,6.0,18.0,76,0.00,,,0.00,,2013-02-28 04:52:00,
2013-02-27 23:01:00,31.0,24.0,30.00,WNW,300,7.0,17.0,75,0.00,,,0.00,,2013-02-28 05:01:00,
2013-02-27 23:11:00,31.0,24.0,30.00,WNW,300,7.0,17.0,75,0.00,,,0.00,,2013-02-28 05:11:00,
2013-02-27 23:22:00,31.0,24.0,30.01,NW,312,4.0,16.0,76,0.00,,,0.00,,2013-02-28 05:22:00,
2013-02-27 23:32:00,30.0,24.0,30.01,WNW,297,4.0,12.0,77,0.00,,,0.00,,2013-02-28 05:32:00,
2013-02-27 23:43:00,30.0,24.0,30.01,WNW,297,4.0,12.0,77,0.00,,,0.00,,2013-02-28 05:43:00,
2013-02-27 23:52:00,30.0,24.0,30.01,WNW,297,4.0,12.0,77,0.00,,,0.00,,2013-02-28 05:52:00,